Temperature
22 21 20 19 19 19 20 20 20 19 16 15 15 15 16 14 12 12 12 12 11 11 10 9 7 6 4 3 3 2 2 2 2 2 1 1 0 -0 -1 -2 -4 -5 -5 -7
21 20 18 19 19 19 20 20 20 18 15 15 15 15 17 16 12 12 12 13 12 12 11 10 8 6 5 4 2 1 1 1 2 2 1 0 -0 -1 -2 -4 -4 -5 -6 -7
21 18 18 18 19 19 20 19 18 17 18 16 15 16 17 16 16 14 13 13 13 13 12 10 8 7 5 3 2 1 1 2 1 1 1 -0 -1 -1 -3 -4 -4 -5 -7 -8
20 17 18 18 19 19 19 17 17 17 16 17 17 16 16 15 14 14 14 13 13 13 12 11 9 7 5 3 2 2 1 2 1 1 0 -0 -1 -2 -3 -4 -5 -6 -7 -8
19 17 17 18 18 17 17 16 16 16 16 16 17 16 18 17 15 14 14 14 13 13 12 11 10 8 5 4 2 2 1 1 1 1 0 -1 -1 -2 -3 -4 -5 -6 -7 -8
17 17 17 17 16 16 16 16 16 15 16 16 18 17 18 17 19 18 16 16 15 13 12 11 10 8 5 3 3 2 1 1 1 1 -0 -1 -1 -2 -3 -4 -5 -6 -7 -8
17 17 16 16 16 16 15 16 16 16 15 17 18 17 17 20 19 19 17 16 15 14 12 10 9 7 5 4 3 2 1 1 1 0 -0 -1 -2 -2 -4 -5 -5 -6 -7 -8
19 18 16 16 17 16 18 17 16 17 18 18 16 16 18 19 19 18 17 16 15 13 12 10 9 7 5 4 3 2 1 1 1 0 -1 -1 -2 -3 -4 -5 -6 -6 -7 -8
19 18 15 15 16 15 17 17 17 16 17 16 17 19 20 17 16 16 15 14 14 13 11 10 8 6 5 3 2 1 1 1 1 0 -1 -1 -2 -3 -4 -5 -6 -6 -7 -8
17 18 16 14 14 14 14 15 15 15 15 15 17 19 18 16 15 15 14 15 15 13 12 10 8 6 4 2 1 1 1 1 0 -0 -1 -1 -2 -3 -4 -5 -6 -7 -7 -8
16 17 16 14 13 15 14 15 15 15 16 14 15 16 20 18 18 18 16 17 16 14 13 10 8 5 3 2 1 1 1 1 0 -0 -1 -1 -2 -3 -4 -5 -6 -7 -7 -8
16 16 16 16 15 14 16 16 16 15 15 15 13 15 19 19 19 19 18 17 16 15 13 11 8 5 3 2 1 1 1 1 0 -0 -1 -2 -2 -3 -4 -5 -6 -7 -7 -8
15 14 15 16 14 13 14 15 15 15 14 14 14 15 19 19 19 18 18 17 15 14 12 10 7 5 3 2 1 1 1 1 0 -0 -1 -2 -2 -3 -4 -5 -6 -6 -7 -8
13 13 14 16 16 15 14 14 14 14 13 13 14 15 18 17 16 17 18 17 15 13 12 9 7 5 3 2 1 1 1 1 0 -0 -1 -2 -2 -3 -4 -5 -6 -6 -7 -7
11 12 14 15 15 16 15 15 14 13 13 14 15 16 18 18 17 19 19 17 15 13 12 10 7 5 3 2 1 1 1 1 0 -0 -1 -2 -2 -3 -4 -5 -5 -6 -7 -7
11 11 13 14 15 14 13 13 14 13 13 14 15 15 17 18 19 18 17 16 15 14 12 10 8 5 4 2 1 1 1 1 1 -0 -1 -2 -2 -3 -4 -5 -5 -6 -6 -7
10 11 12 11 14 13 12 13 13 13 13 13 13 14 15 16 16 17 17 16 15 14 13 11 9 7 5 3 3 2 2 1 1 -0 -1 -2 -2 -3 -4 -4 -5 -5 -6 -7
11 11 11 11 13 12 15 16 15 14 14 13 13 14 14 15 16 16 16 16 16 15 14 12 10 8 5 4 3 2 1 1 1 -0 -1 -2 -2 -3 -4 -4 -5 -5 -6 -6
10 11 11 11 10 12 15 16 14 14 13 14 14 14 15 16 14 16 18 17 17 15 14 13 11 9 6 4 3 2 2 1 1 -0 -1 -2 -2 -3 -3 -4 -4 -5 -5 -6
8 9 9 9 9 10 14 14 13 14 12 15 14 13 15 14 11 14 18 17 16 15 14 12 11 8 6 5 3 2 2 1 1 0 -1 -2 -2 -3 -3 -4 -4 -5 -5 -6
6 7 7 8 8 11 14 11 12 13 14 18 18 17 17 13 14 17 17 16 15 14 13 12 10 9 7 6 4 3 2 2 1 0 -1 -2 -2 -3 -3 -4 -4 -5 -5 -5
8 7 7 8 8 10 12 11 12 14 17 18 18 18 18 17 17 17 16 15 15 14 12 11 9 8 7 5 4 3 3 2 1 -0 -1 -1 -2 -3 -3 -4 -4 -4 -5 -5
11 11 11 11 12 15 14 14 16 17 16 17 17 17 17 16 16 17 16 16 15 14 12 10 8 7 6 5 4 4 3 2 1 -0 -1 -2 -2 -3 -3 -3 -4 -4 -5 -5
13 13 12 12 12 14 15 16 16 16 17 17 17 17 16 16 16 16 16 16 15 14 12 10 8 6 6 5 5 4 3 2 1 0 -1 -2 -2 -3 -3 -3 -4 -4 -4 -5
14 12 10 10 12 14 16 16 17 18 18 18 18 17 17 16 16 16 16 15 15 14 12 10 8 7 6 5 5 4 2 2 1 -0 -1 -2 -2 -3 -3 -3 -4 -4 -5 -5
13 12 11 13 14 13 15 16 16 16 17 17 16 16 16 15 15 15 14 14 13 13 11 10 9 7 6 5 4 4 3 2 1 0 -1 -1 -2 -3 -3 -3 -4 -4 -4 -5
Wind_Speed
3 4 2 5 5 5 5 6 7 4 8 6 10 12 10 15 13 12 12 13 13 13 13 13 13 12 11 10 8 7 4 2 1 1 2 3 3 4 6 6 7 9 10 12
5 2 4 3 2 4 5 7 5 5 7 5 8 11 10 11 17 14 13 13 13 12 12 13 13 13 12 11 10 8 6 3 1 1 1 3 3 3 6 5 7 8 10 12
3 4 2 2 4 6 7 2 4 5 4 9 5 6 5 2 7 12 13 12 11 12 13 14 14 13 12 11 11 8 6 4 3 1 2 3 3 4 3 3 4 8 11 12
4 3 2 5 4 3 3 6 3 5 6 2 5 4 8 7 7 9 12 12 12 11 11 13 16 15 13 11 10 9 7 5 3 2 2 3 4 4 4 3 4 8 11 12
3 4 4 5 2 1 3 2 4 6 5 5 6 5 4 7 9 12 13 14 13 11 11 11 14 14 13 12 11 9 7 6 5 3 3 4 4 4 4 4 6 5 8 11
3 1 2 3 3 1 5 4 6 4 3 5 6 4 4 7 7 8 11 11 12 11 11 10 12 13 11 12 10 9 8 7 6 5 5 5 4 5 6 6 5 5 4 8
6 5 4 0 3 5 5 4 3 3 4 4 4 4 8 7 8 6 9 11 10 10 11 11 13 13 13 13 11 9 8 8 7 6 5 4 4 5 6 5 5 6 5 5
6 6 7 5 2 3 3 3 4 3 4 1 3 6 7 7 8 6 5 5 8 9 10 11 13 13 13 13 12 10 10 8 7 6 5 4 5 4 3 5 5 6 5 5
6 2 3 3 2 3 4 3 2 3 6 5 6 7 5 7 7 8 9 9 10 10 11 11 12 13 13 13 12 11 10 8 7 6 5 5 4 4 5 5 5 4 5 9
5 4 6 5 2 4 4 6 2 3 3 5 7 7 7 9 11 12 12 12 12 11 11 12 12 13 12 12 11 10 9 8 7 6 6 5 5 6 4 5 7 6 6 9
3 4 4 5 8 7 6 4 5 4 3 3 5 7 5 11 10 9 11 11 12 13 13 12 12 12 12 11 11 10 9 8 7 7 6 5 5 5 5 6 6 5 6 8
2 3 5 4 3 3 3 6 7 5 5 5 4 9 9 9 8 8 8 7 8 10 12 12 12 12 12 12 11 11 10 9 8 7 6 5 5 6 6 6 6 6 6 8
1 3 4 2 1 2 3 5 6 5 3 5 5 9 4 5 5 7 9 9 8 10 11 11 12 13 13 13 12 11 10 9 8 7 6 6 6 6 5 5 5 6 6 7
2 4 7 6 2 2 6 8 9 8 6 7 12 16 12 9 10 10 10 11 10 11 12 12 13 13 13 13 12 11 10 10 9 8 7 7 6 5 4 5 6 6 6 8
3 5 7 11 11 8 10 11 12 15 14 12 13 16 19 10 8 7 4 7 9 10 12 14 14 14 14 13 13 12 11 10 9 8 7 7 4 3 4 6 7 8 7 9
4 5 4 7 10 8 10 14 16 18 18 22 22 23 21 12 10 8 5 5 9 10 13 14 15 15 16 16 14 12 11 10 9 9 8 6 5 5 6 7 8 8 8 8
6 5 4 6 2 4 10 15 17 10 12 12 20 19 12 10 9 7 7 8 11 12 12 15 17 16 16 16 14 14 12 10 10 9 8 7 6 6 6 8 8 8 8 8
6 4 3 5 4 11 11 4 7 13 16 16 15 15 11 10 7 7 8 11 12 11 12 14 15 15 13 14 13 12 11 12 11 9 9 8 7 7 7 7 8 9 8 8
3 5 4 3 5 10 12 9 5 7 10 12 19 21 18 11 7 9 12 12 13 11 11 12 14 13 14 15 15 14 13 12 11 10 10 9 8 7 7 8 9 9 8 8
3 3 3 5 6 9 11 2 3 2 9 12 13 16 14 4 3 8 6 6 9 8 8 10 12 13 15 15 16 16 15 14 14 13 11 9 9 8 8 9 9 7 7 7
5 5 7 8 9 12 10 6 7 4 9 5 10 12 10 10 11 8 5 6 8 8 8 10 13 14 15 16 17 17 16 16 14 11 10 9 9 9 8 8 6 6 7 7
13 11 10 8 9 13 8 9 11 12 5 5 7 9 10 11 12 10 9 10 10 9 10 11 13 13 13 17 18 17 17 14 12 12 11 10 9 8 7 7 7 7 6 6
13 13 10 14 14 7 11 13 10 5 7 8 7 9 9 11 12 13 11 11 11 12 11 11 12 12 14 17 18 19 16 14 14 13 11 9 9 8 7 7 7 5 5 4
8 7 7 9 12 10 10 11 12 13 16 16 14 14 12 14 15 15 13 11 11 12 13 12 13 15 16 18 18 16 14 15 15 14 11 9 9 8 7 6 5 4 4 4
10 5 6 10 9 9 12 14 18 19 19 18 17 16 16 15 16 16 14 13 12 12 12 13 16 18 19 18 18 15 16 17 16 14 12 10 9 7 6 6 5 5 5 5
12 11 13 18 12 10 12 9 11 14 16 17 17 17 14 13 16 16 14 12 10 11 12 14 18 18 18 18 18 17 17 18 17 14 13 10 8 7 6 5 4 7 7 8
Wind_Direction
214 242 67 49 28 344 345 320 305 92 147 206 246 261 248 180 194 211 215 211 215 212 198 186 174 161 153 154 163 169 167 153 130 56 331 317 319 308 307 308 326 337 331 325
241 135 65 42 5 302 281 289 324 98 161 212 277 276 260 188 196 206 215 220 215 210 195 182 172 165 166 169 168 168 165 151 158 132 279 261 270 274 283 298 334 328 319 314
11 81 83 256 237 272 265 296 3 341 284 216 264 275 176 165 192 198 213 226 228 210 198 183 175 172 172 174 166 164 145 176 189 157 267 289 289 291 314 343 325 312 311 311
96 121 227 257 249 301 328 58 359 301 297 243 187 285 204 181 208 215 216 220 228 226 201 182 176 176 175 166 143 142 156 193 187 191 246 289 292 298 305 301 285 303 312 313
144 154 220 259 18 11 0 47 287 280 270 278 201 241 205 174 211 216 214 216 219 217 203 185 174 173 167 148 142 149 166 195 186 193 235 258 275 286 294 297 297 303 310 310
87 62 298 356 54 311 317 271 238 265 265 256 177 209 240 197 199 184 187 195 200 198 190 174 158 155 146 139 142 153 181 197 185 203 228 244 270 288 299 303 305 304 297 301
187 191 158 262 248 201 233 274 245 228 223 217 134 213 248 179 157 176 185 185 184 179 173 165 156 158 152 150 154 166 190 201 190 200 222 240 260 272 280 292 296 299 297 298
225 192 165 188 267 323 259 282 310 287 286 341 193 231 248 155 151 155 163 172 172 177 175 171 167 164 160 162 165 174 194 198 185 197 220 235 254 260 266 278 285 288 287 283
319 97 84 79 26 311 281 230 23 308 293 278 255 234 199 144 171 193 204 207 209 200 183 173 167 166 166 168 171 179 188 190 186 196 215 232 250 268 269 276 277 273 277 295
311 298 159 143 208 227 267 319 269 238 265 275 278 256 225 191 221 218 215 217 214 197 182 175 174 173 171 168 170 176 182 187 183 193 215 226 236 252 260 271 275 277 284 296
287 284 171 176 207 200 184 224 236 262 274 244 276 268 226 178 187 196 207 211 206 193 184 180 177 173 165 160 164 173 182 183 185 197 208 228 247 256 263 268 272 278 288 293
219 296 264 199 104 18 211 221 202 216 237 214 250 270 252 194 185 189 210 208 189 180 175 173 170 167 166 166 170 180 184 184 188 190 197 224 246 256 261 269 278 288 289 293
123 244 275 224 340 359 282 253 248 269 307 236 228 260 246 196 207 214 219 219 194 169 166 169 171 175 175 175 179 185 184 182 180 181 197 225 243 253 266 282 291 293 290 291
5 247 236 257 322 192 229 230 216 212 223 238 233 252 262 242 244 242 224 212 197 179 175 178 182 182 180 180 183 184 181 175 176 181 197 222 239 254 279 297 296 290 287 292
204 251 256 268 281 256 239 240 210 214 224 234 247 252 262 256 262 275 246 187 184 181 185 189 189 186 182 182 183 182 179 173 175 182 198 217 233 269 289 287 285 283 283 290
213 248 272 272 258 253 261 251 236 229 233 243 257 269 270 283 281 275 261 211 209 207 200 197 193 189 187 185 183 180 177 172 170 182 196 205 220 244 260 270 274 277 280 283
193 217 247 265 227 341 268 242 226 219 217 214 239 249 278 279 269 260 256 239 230 222 207 199 197 196 191 185 180 180 176 166 171 183 192 199 212 237 254 271 279 280 283 282
195 203 234 269 292 251 246 250 229 223 239 225 241 263 280 276 300 288 259 245 243 229 210 200 195 192 183 175 172 170 166 168 175 184 193 199 208 229 247 262 271 275 275 275
284 212 235 235 251 270 279 261 212 222 270 233 234 252 262 276 318 288 256 231 229 224 208 195 187 180 174 172 169 167 170 172 179 190 196 197 202 219 238 253 262 267 272 278
293 293 236 208 223 248 255 169 83 127 278 251 212 232 249 212 279 270 245 210 218 212 189 175 169 169 173 172 167 171 177 181 191 194 194 192 198 212 229 243 256 266 276 281
174 206 214 221 232 255 262 141 124 185 250 242 198 215 219 199 224 241 205 212 212 205 186 169 169 177 179 170 170 180 184 193 192 182 182 190 199 212 227 243 258 274 282 289
180 183 199 195 215 249 210 154 191 222 266 263 241 228 226 231 249 254 235 225 213 205 190 177 179 182 175 173 177 186 192 188 174 173 179 189 200 215 225 235 255 265 279 295
196 196 196 201 221 247 176 205 230 271 275 266 262 262 253 256 262 263 255 237 220 208 198 188 184 182 181 181 184 191 189 172 169 172 181 189 201 212 217 226 243 259 273 282
226 211 229 242 247 253 237 238 254 259 259 262 259 260 259 258 263 266 263 248 228 213 201 190 186 192 193 190 192 192 177 169 170 176 183 190 199 208 214 221 225 232 250 267
254 210 240 257 264 280 263 244 248 257 261 264 264 259 255 256 262 262 263 254 234 216 200 193 199 203 200 192 192 187 175 171 174 178 184 190 196 199 209 218 217 223 221 231
245 240 247 262 260 256 265 259 253 257 263 265 268 273 267 252 258 263 262 256 235 216 201 202 207 208 201 192 191 187 177 174 175 181 186 188 191 197 202 208 234 259 249 258
Height
1555 1556 1558 1560 1559 1558 1557 1558 1558 1558 1564 1567 1566 1562 1557 1558 1561 1562 1563 1564 1565 1565 1567 1568 1568 1567 1566 1566 1566 1566 1566 1564 1563 1561 1559 1557 1554 1552 1549 1546 1543 1539 1535 1530
1556 1558 1560 1559 1559 1559 1558 1559 1556 1560 1563 1563 1561 1557 1550 1550 1553 1554 1557 1558 1559 1560 1562 1562 1562 1561 1560 1561 1562 1562 1561 1561 1559 1558 1555 1553 1550 1548 1545 1543 1540 1536 1531 1527
1554 1562 1560 1560 1560 1559 1556 1558 1560 1563 1558 1557 1562 1554 1549 1548 1548 1550 1551 1552 1553 1554 1555 1556 1556 1555 1555 1556 1556 1557 1557 1557 1556 1554 1552 1549 1547 1545 1542 1540 1536 1532 1528 1524
1557 1561 1561 1561 1559 1559 1559 1560 1561 1562 1565 1558 1558 1564 1549 1546 1548 1546 1546 1546 1546 1548 1550 1550 1549 1549 1550 1551 1551 1552 1553 1553 1552 1550 1548 1546 1544 1541 1539 1535 1531 1528 1525 1521
1558 1560 1561 1561 1559 1561 1560 1561 1562 1562 1562 1561 1554 1560 1545 1541 1543 1540 1539 1539 1540 1542 1544 1545 1544 1544 1545 1546 1546 1548 1549 1549 1548 1546 1544 1542 1540 1538 1535 1531 1528 1524 1521 1517
1560 1560 1560 1560 1560 1561 1561 1561 1561 1562 1562 1564 1547 1553 1544 1538 1530 1530 1531 1533 1534 1536 1538 1540 1540 1541 1541 1540 1540 1543 1545 1544 1544 1542 1540 1539 1537 1534 1531 1528 1524 1520 1516 1513
1561 1559 1559 1561 1561 1561 1563 1565 1567 1567 1572 1555 1545 1549 1542 1523 1522 1524 1526 1528 1529 1531 1533 1534 1535 1534 1534 1534 1536 1539 1540 1540 1539 1538 1537 1535 1533 1531 1527 1524 1520 1516 1512 1509
1554 1559 1558 1559 1559 1560 1556 1560 1569 1571 1561 1551 1549 1550 1529 1516 1518 1520 1522 1524 1525 1526 1527 1528 1528 1528 1528 1529 1531 1534 1535 1535 1535 1534 1533 1532 1530 1527 1524 1520 1517 1513 1509 1505
1553 1557 1559 1558 1559 1561 1557 1556 1557 1563 1554 1559 1548 1530 1518 1516 1517 1518 1519 1520 1520 1521 1522 1522 1523 1523 1523 1524 1525 1528 1530 1531 1530 1530 1529 1528 1526 1523 1520 1517 1513 1509 1505 1502
1556 1557 1558 1560 1561 1560 1561 1559 1561 1563 1567 1567 1545 1530 1525 1520 1516 1514 1514 1514 1513 1515 1516 1516 1516 1517 1518 1519 1521 1523 1525 1526 1526 1525 1525 1524 1522 1519 1516 1513 1509 1505 1502 1498
1557 1559 1558 1560 1559 1556 1561 1560 1558 1556 1555 1566 1561 1540 1504 1505 1504 1505 1506 1507 1507 1508 1509 1509 1510 1511 1513 1514 1515 1518 1520 1521 1521 1520 1520 1519 1517 1515 1512 1509 1505 1502 1498 1495
1555 1558 1557 1550 1549 1550 1548 1549 1552 1561 1555 1554 1560 1539 1499 1497 1497 1499 1501 1503 1503 1503 1503 1504 1505 1506 1507 1508 1509 1512 1514 1515 1516 1516 1515 1515 1513 1511 1508 1505 1502 1498 1495 1491
1556 1560 1560 1554 1556 1555 1552 1548 1546 1547 1551 1552 1553 1531 1496 1495 1496 1497 1497 1498 1498 1498 1498 1499 1499 1499 1500 1501 1504 1506 1508 1510 1510 1511 1511 1510 1508 1506 1504 1501 1498 1495 1491 1487
1557 1558 1559 1553 1548 1547 1550 1546 1545 1549 1553 1549 1537 1518 1499 1496 1495 1493 1492 1492 1492 1492 1492 1492 1492 1493 1494 1495 1497 1500 1502 1504 1505 1506 1506 1505 1504 1502 1500 1497 1494 1491 1487 1483
1557 1558 1549 1544 1540 1539 1540 1538 1540 1541 1536 1533 1517 1507 1492 1489 1489 1488 1488 1488 1488 1487 1487 1486 1486 1486 1487 1489 1491 1494 1496 1498 1499 1500 1500 1500 1499 1497 1495 1493 1490 1487 1483 1479
1555 1556 1549 1544 1536 1535 1537 1531 1529 1528 1525 1518 1510 1500 1482 1486 1485 1483 1484 1484 1483 1482 1481 1480 1479 1479 1480 1481 1483 1487 1489 1492 1493 1494 1495 1495 1494 1493 1491 1489 1486 1482 1479 1475
1552 1553 1552 1549 1535 1537 1536 1517 1515 1514 1506 1507 1506 1492 1482 1483 1481 1481 1480 1479 1478 1476 1474 1473 1471 1471 1472 1473 1476 1479 1483 1486 1487 1489 1490 1490 1489 1488 1486 1484 1482 1478 1475 1471
1547 1547 1549 1547 1538 1545 1512 1498 1498 1499 1494 1493 1490 1484 1482 1480 1479 1477 1475 1474 1471 1469 1468 1466 1465 1464 1465 1467 1470 1474 1477 1479 1481 1483 1484 1484 1484 1483 1482 1480 1477 1475 1471 1467
1542 1543 1544 1546 1546 1529 1507 1494 1495 1496 1492 1483 1482 1479 1477 1476 1476 1471 1469 1467 1465 1464 1462 1460 1458 1458 1459 1460 1463 1467 1470 1472 1475 1476 1478 1479 1479 1478 1477 1475 1473 1470 1467 1463
1543 1543 1546 1545 1547 1535 1504 1493 1492 1495 1495 1472 1472 1472 1471 1473 1478 1468 1463 1461 1459 1458 1455 1453 1452 1451 1451 1453 1456 1459 1462 1465 1467 1470 1472 1473 1473 1473 1472 1471 1469 1467 1464 1460
1545 1544 1545 1542 1538 1517 1492 1491 1493 1500 1486 1468 1465 1465 1466 1467 1465 1460 1458 1456 1454 1451 1449 1447 1445 1444 1444 1446 1448 1451 1454 1457 1461 1464 1466 1467 1468 1468 1467 1466 1465 1463 1460 1457
1525 1533 1533 1530 1531 1514 1483 1488 1488 1476 1467 1465 1463 1462 1461 1459 1457 1455 1452 1449 1447 1444 1442 1439 1437 1436 1437 1438 1441 1443 1446 1450 1454 1457 1459 1461 1462 1462 1462 1462 1461 1459 1457 1454
1502 1501 1501 1501 1491 1477 1474 1472 1467 1466 1464 1461 1459 1457 1456 1454 1451 1449 1446 1443 1440 1437 1434 1432 1430 1430 1430 1430 1433 1435 1439 1443 1447 1450 1452 1455 1456 1457 1457 1457 1457 1455 1453 1450
1488 1486 1487 1484 1474 1471 1469 1467 1465 1464 1460 1455 1453 1451 1449 1447 1444 1441 1439 1436 1433 1429 1427 1425 1423 1422 1421 1421 1424 1428 1433 1436 1439 1442 1446 1448 1450 1451 1452 1452 1452 1451 1450 1447
1481 1484 1483 1476 1468 1467 1462 1460 1459 1456 1453 1449 1446 1444 1442 1440 1437 1434 1431 1428 1425 1422 1419 1417 1414 1412 1411 1413 1415 1420 1424 1428 1431 1435 1438 1441 1444 1445 1446 1447 1448 1447 1446 1444
1475 1478 1476 1465 1462 1462 1455 1454 1454 1451 1447 1444 1441 1436 1434 1434 1430 1427 1423 1420 1417 1414 1411 1408 1405 1403 1403 1404 1407 1411 1414 1419 1423 1427 1430 1433 1437 1439 1441 1442 1443 1443 1443 1441